Weather History for Drummond Island, MI

Change the Weather History Date:

Saturday, February 22, 2014

  Actual Average (KCIU) Record (KCIU)
Temperature  
Mean Temperature 18 °F -  
Max Temperature 21 °F 34 °F 47 °F (1983)
Min Temperature 14 °F 12 °F -4 °F (1999)
Degree Days  
Heating Degree Days 48    
Moisture  
Dew Point 12 °F    
Average Humidity 76    
Maximum Humidity 85    
Minimum Humidity 65    
Precipitation  
Precipitation 0.00 in - - ()
Sea Level Pressure  
Sea Level Pressure 29.62 in    
Wind  
Wind Speed 10 mph (WSW)    
Max Wind Speed 17 mph    
Max Gust Speed 30 mph    
Visibility 7 miles    
Events Snow    
Averages and records for this station are not official NWS values.
T = Trace of Precipitation, MM = Missing Value Source: NWS Daily Summary

Daily Weather History Graph

Daily Weather History Graph

Search for Another Location

Airport:

Trip Planner

Search our weather history database for the weather conditions in past years. The results will help you decide how hot, cold, wet, or windy it might be!

Date:

Astronomy

Feb. 22, 2014 Rise Set
Actual Time 7:26 AM EST 6:11 PM EST
Civil Twilight 6:55 AM EST 6:41 PM EST
Nautical Twilight 6:21 AM EST 7:16 PM EST
Astronomical Twilight 5:46 AM EST 7:51 PM EST
Moon 1:28 AM EST (2/22) 11:13 AM EST (2/22)
Length of Visible Light 11h 46m
Length of Day
10h 45m
Waning Gibbous, 50% of the Moon is Illuminated
Feb 22
Waning Gibbous
Feb 22
Last Quarter
Mar 1
New
Mar 8
First Quarter
Mar 16
Full

Hourly Weather History & Observations

Time (EST) Temp. Windchill Dew Point Humidity Pressure Visibility Wind Dir Wind Speed Gust Speed Precip Events Conditions
12:15 AM 19.9 °F 8.6 °F 16.2 °F 85% 29.42 in 2.5 mi WSW 10.4 mph 17.3 mph N/A Snow Light Snow
12:35 AM 19.2 °F 4.3 °F 14.7 °F 83% 29.42 in 2.5 mi WSW 17.3 mph 24.2 mph N/A Snow Light Snow
12:55 AM 18.7 °F 5.1 °F 14.5 °F 84% 29.44 in 3.0 mi WSW 13.8 mph 26.5 mph N/A Snow Light Snow
1:15 AM 18.5 °F 5.5 °F 13.8 °F 82% 29.45 in 4.0 mi WSW 12.7 mph 27.6 mph N/A Snow Light Snow
1:35 AM 18.1 °F 4.4 °F 14.0 °F 84% 29.45 in 3.0 mi WSW 13.8 mph 24.2 mph N/A Snow Light Snow
1:55 AM 17.6 °F 6.4 °F 13.1 °F 83% 29.45 in 7.0 mi West 9.2 mph 18.4 mph N/A Snow Light Snow
2:14 AM 17.6 °F 6.4 °F 13.1 °F 83% 29.46 in 10.0 mi WSW 9.2 mph 21.9 mph N/A   Mostly Cloudy
2:35 AM 17.6 °F 5.7 °F 12.9 °F 82% 29.47 in 10.0 mi WSW 10.4 mph 16.1 mph N/A   Overcast
2:55 AM 17.6 °F 7.3 °F 13.1 °F 83% 29.47 in 7.0 mi WSW 8.1 mph 25.3 mph N/A Snow Light Snow
3:15 AM 17.6 °F 5.0 °F 12.9 °F 82% 29.48 in 7.0 mi WSW 11.5 mph 17.3 mph N/A   Overcast
3:35 AM 17.6 °F 6.4 °F 12.7 °F 81% 29.48 in 7.0 mi West 9.2 mph 19.6 mph N/A   Overcast
3:55 AM 17.4 °F 4.1 °F 12.2 °F 80% 29.48 in 7.0 mi West 12.7 mph 19.6 mph N/A   Overcast
4:15 AM 17.2 °F 4.5 °F 12.2 °F 81% 29.48 in 7.0 mi WSW 11.5 mph 23.0 mph N/A   Overcast
4:35 AM 16.9 °F 4.1 °F 12.2 °F 82% 29.49 in 10.0 mi WSW 11.5 mph 19.6 mph N/A   Scattered Clouds
4:55 AM 17.1 °F 5.0 °F 12.6 °F 82% 29.49 in 7.0 mi West 10.4 mph 18.4 mph N/A Snow Light Snow
5:15 AM 16.9 °F 4.8 °F 12.0 °F 81% 29.50 in 7.0 mi West 10.4 mph 17.3 mph N/A   Overcast
5:35 AM 16.5 °F 6.0 °F 11.8 °F 82% 29.51 in 7.0 mi West 8.1 mph - N/A Snow Light Snow
5:55 AM 16.3 °F 4.9 °F 11.3 °F 81% 29.52 in 10.0 mi West 9.2 mph 16.1 mph N/A Snow Light Snow
6:15 AM 15.8 °F 4.2 °F 10.8 °F 80% 29.52 in 10.0 mi WSW 9.2 mph - N/A Snow Light Snow
6:35 AM 15.6 °F 4.9 °F 10.4 °F 80% 29.53 in 10.0 mi West 8.1 mph 18.4 mph N/A Snow Light Snow
6:55 AM 14.9 °F 6.1 °F 9.9 °F 80% 29.54 in 10.0 mi West 5.8 mph - N/A Snow Light Snow
7:15 AM 14.7 °F 3.8 °F 9.5 °F 80% 29.55 in 7.0 mi WSW 8.1 mph - N/A Snow Light Snow
7:35 AM 14.7 °F 7.3 °F 9.3 °F 79% 29.56 in 10.0 mi WSW 4.6 mph 18.4 mph N/A Snow Light Snow
7:55 AM 14.0 °F 5.1 °F 7.9 °F 77% 29.57 in 10.0 mi West 5.8 mph 16.1 mph N/A   Mostly Cloudy
8:15 AM 14.4 °F 4.3 °F 7.7 °F 75% 29.59 in 10.0 mi West 6.9 mph 16.1 mph N/A   Mostly Cloudy
8:35 AM 14.4 °F 0.2 °F 7.3 °F 74% 29.60 in 10.0 mi West 12.7 mph 17.3 mph N/A   Mostly Cloudy
8:55 AM 15.3 °F 5.4 °F 7.5 °F 71% 29.61 in 10.0 mi West 6.9 mph - N/A   Scattered Clouds
9:14 AM 15.8 °F 4.2 °F 7.7 °F 70% 29.61 in 10.0 mi West 9.2 mph 18.4 mph N/A   Scattered Clouds
9:35 AM 15.8 °F 2.7 °F 7.7 °F 70% 29.62 in 10.0 mi West 11.5 mph 24.2 mph N/A   Mostly Cloudy
9:55 AM 16.5 °F 6.0 °F 8.1 °F 69% 29.62 in 10.0 mi West 8.1 mph 17.3 mph N/A   Overcast
10:15 AM 18.5 °F 7.5 °F 9.1 °F 67% 29.62 in 10.0 mi West 9.2 mph - N/A   Overcast
10:35 AM 18.3 °F 5.9 °F 8.8 °F 66% 29.63 in 7.0 mi West 11.5 mph 19.6 mph N/A   Overcast
10:55 AM 17.6 °F 6.4 °F 8.6 °F 68% 29.63 in 7.0 mi West 9.2 mph 24.2 mph N/A   Scattered Clouds
11:15 AM 19.6 °F 8.9 °F 10.2 °F 67% 29.64 in 7.0 mi West 9.2 mph 25.3 mph N/A   Mostly Cloudy
11:35 AM 19.4 °F 7.2 °F 10.2 °F 68% 29.65 in 4.0 mi WSW 11.5 mph 21.9 mph N/A   Haze
11:55 AM 18.1 °F 7.1 °F 10.0 °F 71% 29.65 in 5.0 mi West 9.2 mph 29.9 mph N/A Snow Light Snow
12:15 PM 18.0 °F 5.4 °F 10.4 °F 72% 29.66 in 4.0 mi WSW 11.5 mph 21.9 mph N/A Snow Light Snow
12:35 PM 19.0 °F 7.5 °F 11.8 °F 74% 29.66 in 2.5 mi WSW 10.4 mph 18.4 mph N/A Snow Light Snow
12:55 PM 18.5 °F 3.3 °F 11.7 °F 75% 29.66 in 4.0 mi WSW 17.3 mph 23.0 mph N/A Snow Light Snow
1:15 PM 19.0 °F 6.8 °F 11.5 °F 72% 29.66 in 5.0 mi WSW 11.5 mph 26.5 mph N/A Snow Light Snow
1:35 PM 19.2 °F 7.0 °F 12.0 °F 74% 29.66 in 3.0 mi West 11.5 mph 21.9 mph N/A Snow Light Snow
1:55 PM 19.6 °F 8.9 °F 12.6 °F 74% 29.66 in 3.0 mi West 9.2 mph 21.9 mph N/A Snow Light Snow
2:15 PM 19.8 °F 9.9 °F 12.9 °F 75% 29.65 in 3.0 mi West 8.1 mph 23.0 mph N/A Snow Light Snow
2:35 PM 20.7 °F 11.9 °F 13.5 °F 74% 29.66 in 3.0 mi West 6.9 mph 20.7 mph N/A Snow Light Snow
2:55 PM 20.5 °F 10.0 °F 14.0 °F 76% 29.67 in 1.5 mi West 9.2 mph 20.7 mph N/A Snow Light Snow
3:15 PM 19.9 °F 7.9 °F 14.0 °F 78% 29.67 in 2.0 mi WSW 11.5 mph 21.9 mph N/A Snow Light Snow
3:35 PM 19.9 °F 8.6 °F 14.0 °F 78% 29.68 in 2.0 mi WSW 10.4 mph 21.9 mph N/A Snow Light Snow
3:55 PM 19.9 °F 11.1 °F 14.0 °F 78% 29.68 in 2.0 mi West 6.9 mph 23.0 mph N/A Snow Light Snow
4:15 PM 20.1 °F 9.5 °F 14.4 °F 78% 29.68 in 2.5 mi WSW 9.2 mph 19.6 mph N/A Snow Light Snow
4:35 PM 20.1 °F 6.9 °F 14.4 °F 78% 29.69 in 2.5 mi WSW 13.8 mph 20.7 mph N/A Snow Light Snow
4:55 PM 20.1 °F 8.1 °F 14.0 °F 77% 29.70 in 2.5 mi West 11.5 mph 17.3 mph N/A Snow Light Snow
5:15 PM 20.1 °F 8.8 °F 14.4 °F 78% 29.70 in 2.5 mi West 10.4 mph 19.6 mph N/A Snow Light Snow
5:35 PM 20.1 °F 9.5 °F 14.4 °F 78% 29.70 in 3.0 mi WSW 9.2 mph 21.9 mph N/A Snow Light Snow
5:55 PM 20.1 °F 11.3 °F 14.9 °F 80% 29.70 in 2.0 mi WSW 6.9 mph 19.6 mph N/A Snow Light Snow
6:15 PM 20.1 °F 9.5 °F 15.4 °F 82% 29.71 in 2.0 mi WSW 9.2 mph - N/A Snow Light Snow
6:35 PM 20.3 °F 9.0 °F 15.8 °F 83% 29.71 in 2.5 mi WSW 10.4 mph 16.1 mph N/A Snow Light Snow
6:55 PM 20.8 °F 8.4 °F 15.4 °F 80% 29.72 in 7.0 mi WSW 12.7 mph 18.4 mph N/A Snow Light Snow
7:14 PM 20.8 °F 9.0 °F 14.0 °F 75% 29.72 in 10.0 mi WSW 11.5 mph 19.6 mph N/A Snow Light Snow
7:35 PM 21.2 °F 10.9 °F 13.6 °F 73% 29.72 in 10.0 mi WSW 9.2 mph 18.4 mph N/A   Clear
7:55 PM 21.4 °F 10.4 °F 13.5 °F 72% 29.72 in 10.0 mi WSW 10.4 mph 24.2 mph N/A   Clear
8:15 PM 21.7 °F 12.3 °F 13.5 °F 70% 29.72 in 10.0 mi West 8.1 mph 16.1 mph N/A   Clear
8:35 PM 21.6 °F 10.6 °F 13.8 °F 72% 29.73 in 10.0 mi WSW 10.4 mph 17.3 mph N/A   Scattered Clouds
8:55 PM 21.7 °F 12.3 °F 14.0 °F 72% 29.73 in 10.0 mi WSW 8.1 mph - N/A   Mostly Cloudy
9:15 PM 21.7 °F 11.5 °F 13.8 °F 72% 29.74 in 10.0 mi West 9.2 mph - N/A   Mostly Cloudy
9:35 PM 21.4 °F 11.1 °F 12.9 °F 70% 29.75 in 10.0 mi WSW 9.2 mph 17.3 mph N/A   Mostly Cloudy
9:55 PM 21.0 °F 11.4 °F 12.2 °F 69% 29.75 in 10.0 mi West 8.1 mph - N/A   Mostly Cloudy
10:15 PM 20.7 °F 13.0 °F 11.1 °F 67% 29.75 in 10.0 mi West 5.8 mph - N/A   Overcast
10:35 PM 19.9 °F 13.4 °F 10.4 °F 67% 29.76 in 10.0 mi West 4.6 mph - N/A   Mostly Cloudy
10:55 PM 19.4 °F 11.5 °F 9.5 °F 65% 29.77 in 10.0 mi WSW 5.8 mph - N/A   Mostly Cloudy
11:15 PM 19.0 °F 10.0 °F 9.1 °F 65% 29.77 in 10.0 mi West 6.9 mph - N/A   Clear
11:35 PM 18.5 °F 9.3 °F 9.0 °F 66% 29.78 in 10.0 mi West 6.9 mph - N/A   Clear
11:55 PM 17.8 °F 7.5 °F 8.4 °F 67% 29.77 in 10.0 mi WSW 8.1 mph - N/A   Clear